Home > Time Zones > World Clock > Weather > Cuba > Havana > Past weeks

Flag for Cuba Weather past 2 weeks in Havana, Cuba

Now
72 °F

Passing clouds.


Feels Like: 69 °F
Forecast: 74 / 84 °F
Wind: 5 mph from East

Location: Aeropuerto Jose Marti - Rancho-Boyeros - Habana

Current Time: Oct 20, 2014 at 11:28:19 PM

Latest Report: Oct 20, 2014 at 10:55 PM


Visibility: 6 mi

Pressure: 29.98 "Hg

Humidity: 88%

Dew point: 68 °F

Location of HavanaLocation

Historic Weather in Havana — Graph

°F

Havana temperature yesterday

Maximum temperature yesterday: 82 °F (at 12:55 PM)
Minimum temperature yesterday: 66 °F (at 1:55 AM)
Average temperature yesterday: 75 °F

Past Weeks' High & Low Weather Summary

 TemperatureHumidityPressure
High91 °F (Oct 7, 2:55 PM)100% (Oct 8, 7:55 AM)30.09 "Hg (Oct 8, 7:55 AM)
Low32 °F (Oct 8, 7:55 AM)36% (Oct 7, 3:55 PM)29.89 "Hg (Oct 10, 4:55 PM)
Average77 °F74%29.98 "Hg
* Reported Oct 5 9:55 PM — Oct 20 9:55 PM, Havana, Weather by CustomWeather, © 2014

Note: Actual official high and low records may vary slightly from our data, if they occured in-between our weather recording intervals... More about our weather records

Advertising

Havana weather history for previous 24 hours

 ConditionsComfort  
Time TempWeatherWind HumidityBarometerVisibility
9:55 PM
Oct 20
72 °FPassing clouds.2 mph83%29.95 "Hg6 mi
8:55 PM73 °FPassing clouds.3 mph83%29.95 "Hg6 mi
7:55 PM73 °FPartly sunny.3 mph83%29.95 "Hg6 mi
6:55 PM75 °FPartly sunny.7 mph78%29.92 "Hg6 mi
5:55 PM79 °FBroken clouds.5 mph74%29.92 "Hg6 mi
4:55 PM79 °FBroken clouds.7 mph74%29.92 "Hg6 mi
3:56 PM75 °FRain. Partly sunny.6 mph83%29.92 "Hg2 mi
2:55 PM86 °FPartly sunny.7 mph59%29.92 "Hg6 mi
1:55 PM86 °FPartly sunny.9 mph59%29.95 "Hg6 mi
12:55 PM86 °FPartly sunny.10 mph55%29.98 "Hg6 mi
11:55 AM86 °FScattered clouds.9 mph55%30.01 "Hg6 mi
10:55 AM84 °FPassing clouds.9 mph62%30.01 "Hg6 mi
9:55 AM81 °FPassing clouds.9 mph70%30.01 "HgN/A
8:55 AM79 °FPassing clouds.1 mph74%29.98 "Hg6 mi
7:55 AM72 °FPassing clouds.2 mph88%29.98 "Hg6 mi
6:55 AM72 °FPassing clouds.3 mph83%29.95 "Hg6 mi
5:55 AM73 °FPassing clouds.2 mph78%29.95 "Hg6 mi
4:55 AM72 °FPassing clouds.2 mph88%29.95 "Hg6 mi
3:55 AM72 °FPassing clouds.2 mph83%29.95 "Hg6 mi
2:55 AM72 °FPassing clouds.2 mph83%29.98 "Hg6 mi
1:55 AM73 °FPassing clouds.3 mph83%29.98 "Hg6 mi
12:55 AM73 °FPassing clouds.2 mph83%30.01 "Hg6 mi
Weather by CustomWeather, © 2014

See weather overviewHow to use our weather pages